Weather History for Everett, WA

Change the Weather History Date:

Thursday, December 19, 2013

  Actual Average Record
Temperature  
Mean Temperature 33 °F -  
Max Temperature 36 °F 43 °F 55 °F (1976)
Min Temperature 30 °F 33 °F 15 °F (2008)
Degree Days  
Heating Degree Days 32    
Moisture  
Dew Point 22 °F    
Average Humidity 64    
Maximum Humidity 76    
Minimum Humidity 54    
Precipitation  
Precipitation 0.00 in - - ()
Sea Level Pressure  
Sea Level Pressure 30.27 in    
Wind  
Wind Speed 5 mph (NE)    
Max Wind Speed 12 mph    
Max Gust Speed 18 mph    
Visibility 10 miles    
Events      
Averages and records for this station are not official NWS values.
T = Trace of Precipitation, MM = Missing Value Source: NWS Daily Summary

Daily Weather History Graph

Daily Weather History Graph

Search for Another Location

Airport:

Trip Planner

Search our weather history database for the weather conditions in past years. The results will help you decide how hot, cold, wet, or windy it might be!

Date:

Astronomy

Dec. 19, 2013 Rise Set
Actual Time 7:54 AM PST 4:18 PM PST
Civil Twilight 7:18 AM PST 4:54 PM PST
Nautical Twilight 6:38 AM PST 5:34 PM PST
Astronomical Twilight 6:01 AM PST 6:11 PM PST
Moon 6:58 PM PST (12/19) 9:08 AM PST (12/19)
Length of Visible Light 9h 35m
Length of Day
8h 23m
Waning Gibbous, 95% of the Moon is Illuminated
Dec 19
Waning Gibbous
Dec 25
Last Quarter
Jan 1
New
Jan 7
First Quarter
Jan 15
Full

Hourly Weather History & Observations

Time (PST) Temp. Windchill Dew Point Humidity Pressure Visibility Wind Dir Wind Speed Gust Speed Precip Events Conditions
12:53 AM 35.1 °F 29.3 °F 28.0 °F 76% 30.20 in 10.0 mi North 6.9 mph - N/A   Clear
1:53 AM 35.1 °F 27.4 °F 26.1 °F 70% 30.23 in 10.0 mi North 10.4 mph 18.4 mph N/A   Clear
2:53 AM 34.0 °F 25.5 °F 25.0 °F 70% 30.26 in 10.0 mi North 11.5 mph 16.1 mph N/A   Clear
3:53 AM 33.1 °F 27.7 °F 21.9 °F 64% 30.26 in 10.0 mi North 5.8 mph - N/A   Clear
4:53 AM 33.1 °F 26.9 °F 21.9 °F 64% 30.27 in 10.0 mi North 6.9 mph - N/A   Clear
5:53 AM 30.9 °F 27.5 °F 21.9 °F 69% 30.27 in 10.0 mi NW 3.5 mph - N/A   Clear
6:53 AM 33.1 °F 27.7 °F 19.9 °F 59% 30.30 in 10.0 mi NNE 5.8 mph - N/A   Clear
7:53 AM 32.0 °F 27.5 °F 19.9 °F 61% 30.31 in 10.0 mi North 4.6 mph - N/A   Clear
8:53 AM 33.1 °F 30.0 °F 18.0 °F 54% 30.30 in 10.0 mi Variable 3.5 mph - N/A   Clear
9:53 AM 30.9 °F 27.5 °F 19.0 °F 61% 30.34 in 10.0 mi SSE 3.5 mph - N/A   Clear
10:53 AM 32.0 °F 28.7 °F 18.0 °F 56% 30.35 in 10.0 mi Variable 3.5 mph - N/A   Clear
11:53 AM 33.1 °F - 19.0 °F 56% 30.31 in 10.0 mi Calm Calm - N/A   Clear
12:53 PM 35.1 °F - 21.0 °F 57% 30.29 in 10.0 mi Calm Calm - N/A   Clear
1:53 PM 36.0 °F - 26.1 °F 67% 30.30 in 10.0 mi Calm Calm - N/A   Clear
2:53 PM 34.0 °F - 25.0 °F 70% 30.29 in 10.0 mi Calm Calm - N/A   Clear
3:53 PM 34.0 °F - 24.1 °F 67% 30.30 in 10.0 mi Calm Calm - N/A   Scattered Clouds
4:53 PM 33.1 °F 30.0 °F 21.0 °F 61% 30.29 in 10.0 mi SSW 3.5 mph - N/A   Overcast
5:53 PM 34.0 °F - 19.9 °F 56% 30.28 in 10.0 mi Calm Calm - N/A   Overcast
6:53 PM 34.0 °F 31.0 °F 19.9 °F 56% 30.26 in 10.0 mi SSE 3.5 mph - N/A   Overcast
7:53 PM 33.1 °F 28.7 °F 24.1 °F 70% 30.25 in 10.0 mi SSE 4.6 mph - N/A   Overcast
8:53 PM 33.1 °F 26.9 °F 23.0 °F 66% 30.24 in 10.0 mi SSE 6.9 mph - N/A   Overcast
9:53 PM 33.1 °F - 23.0 °F 66% 30.23 in 10.0 mi Calm Calm - N/A   Overcast
10:53 PM 33.1 °F 30.0 °F 23.0 °F 66% 30.22 in 10.0 mi Variable 3.5 mph - N/A   Overcast
11:53 PM 33.1 °F 27.7 °F 23.0 °F 66% 30.21 in 10.0 mi SSE 5.8 mph - N/A   Overcast